N124TL KFOK-KPOU

Flight info

Callsign N124TL
Flight time 0h 35m
Altitude 4500
Route VFR NORTH WEST
Aircraft BE58/L-VGD/C

Departure

Time 2026-05-03 21:48
Airport Francis S Gabreski Airport (KFOK)

Arrival

Time 2026-05-03 22:23
Airport Dutchess County Airport (KPOU)
Time Latitude Longitude Altitude Speed Heading
2026-05-03 21:39 40.84388 -72.64055 56 ft 0 kts 269°
2026-05-03 21:43 40.84387 -72.64060 56 ft 4 kts 242°
2026-05-03 21:43 40.84338 -72.64024 56 ft 10 kts 162°
2026-05-03 21:44 40.84271 -72.63939 56 ft 17 kts 155°
2026-05-03 21:44 40.84169 -72.63909 54 ft 23 kts 169°
2026-05-03 21:44 40.84004 -72.63880 51 ft 27 kts 178°
2026-05-03 21:44 40.83853 -72.63908 48 ft 26 kts 177°
2026-05-03 21:45 40.83653 -72.63892 46 ft 24 kts 167°
2026-05-03 21:45 40.83532 -72.63757 45 ft 20 kts 126°
2026-05-03 21:45 40.83506 -72.63538 45 ft 23 kts 89°
2026-05-03 21:45 40.83513 -72.63300 46 ft 30 kts 88°
2026-05-03 21:46 40.83522 -72.63020 46 ft 24 kts 90°
2026-05-03 21:46 40.83599 -72.62875 46 ft 22 kts 41°
2026-05-03 21:46 40.83731 -72.62717 46 ft 24 kts 42°
2026-05-03 21:46 40.83815 -72.62671 47 ft 10 kts 319°
2026-05-03 21:47 40.83818 -72.62675 47 ft 0 kts 314°
2026-05-03 21:47 40.83951 -72.62862 50 ft 68 kts 313°
2026-05-03 21:47 40.84361 -72.63450 183 ft 99 kts 312°
2026-05-03 21:47 40.84880 -72.64162 425 ft 116 kts 314°
2026-05-03 21:48 40.85532 -72.64896 688 ft 129 kts 319°
2026-05-03 21:48 40.86275 -72.65642 939 ft 139 kts 327°
2026-05-03 21:48 40.87244 -72.65964 1193 ft 149 kts 346°
2026-05-03 21:48 40.88285 -72.66104 1446 ft 153 kts 348°
2026-05-03 21:49 40.89360 -72.66245 1716 ft 154 kts 348°
2026-05-03 21:49 40.90384 -72.66363 2199 ft 143 kts 348°
2026-05-03 21:49 40.91349 -72.66464 2633 ft 138 kts 348°
2026-05-03 21:49 40.92292 -72.66556 3044 ft 135 kts 348°
2026-05-03 21:50 40.93170 -72.66624 3602 ft 121 kts 348°
2026-05-03 21:50 40.93978 -72.66664 4080 ft 113 kts 348°
2026-05-03 21:50 40.94772 -72.66702 4238 ft 129 kts 348°
2026-05-03 21:50 40.95768 -72.66794 4171 ft 153 kts 348°
2026-05-03 21:51 40.96861 -72.66912 4150 ft 154 kts 348°
2026-05-03 21:51 40.97912 -72.67021 4149 ft 148 kts 348°
2026-05-03 21:51 40.98914 -72.67189 4142 ft 140 kts 332°
2026-05-03 21:51 40.99697 -72.67902 4154 ft 134 kts 317°
2026-05-03 21:52 41.00393 -72.68720 4153 ft 133 kts 316°
2026-05-03 21:52 41.01083 -72.69542 4155 ft 132 kts 315°
2026-05-03 21:52 41.01746 -72.70390 4155 ft 132 kts 314°
2026-05-03 21:52 41.02387 -72.71256 4157 ft 131 kts 313°
2026-05-03 21:53 41.03021 -72.72121 4156 ft 131 kts 313°
2026-05-03 21:53 41.03667 -72.73002 4155 ft 131 kts 313°
2026-05-03 21:53 41.04302 -72.73864 4154 ft 131 kts 313°
2026-05-03 21:53 41.04938 -72.74728 4154 ft 131 kts 313°
2026-05-03 21:54 41.05575 -72.75592 4153 ft 130 kts 313°
2026-05-03 21:54 41.06210 -72.76450 4153 ft 130 kts 313°
2026-05-03 21:54 41.06846 -72.77305 4153 ft 130 kts 313°
2026-05-03 21:54 41.07488 -72.78172 4154 ft 130 kts 313°
2026-05-03 21:55 41.08124 -72.79024 4154 ft 130 kts 313°
2026-05-03 21:55 41.08760 -72.79878 4153 ft 130 kts 313°
2026-05-03 21:55 41.09394 -72.80727 4154 ft 130 kts 313°
2026-05-03 21:55 41.10033 -72.81586 4155 ft 130 kts 313°
2026-05-03 21:56 41.10677 -72.82458 4160 ft 130 kts 313°
2026-05-03 21:56 41.11322 -72.83328 4160 ft 130 kts 313°
2026-05-03 21:56 41.11964 -72.84201 4161 ft 130 kts 313°
2026-05-03 21:56 41.12600 -72.85068 4160 ft 131 kts 313°
2026-05-03 21:57 41.13238 -72.85941 4159 ft 131 kts 313°
2026-05-03 21:57 41.13854 -72.86832 4159 ft 131 kts 308°
2026-05-03 21:57 41.14404 -72.87811 4159 ft 131 kts 306°
2026-05-03 21:57 41.14942 -72.88789 4158 ft 131 kts 306°
2026-05-03 21:58 41.15480 -72.89764 4157 ft 132 kts 306°
2026-05-03 21:58 41.16022 -72.90749 4157 ft 132 kts 306°
2026-05-03 21:58 41.16566 -72.91730 4158 ft 132 kts 306°
2026-05-03 21:58 41.17115 -72.92726 4159 ft 132 kts 306°
2026-05-03 21:59 41.17650 -72.93699 4160 ft 131 kts 307°
2026-05-03 21:59 41.18190 -72.94685 4162 ft 131 kts 306°
2026-05-03 21:59 41.18731 -72.95676 4165 ft 131 kts 306°
2026-05-03 21:59 41.19300 -72.96626 4167 ft 131 kts 312°
2026-05-03 22:00 41.19927 -72.97502 4170 ft 131 kts 313°
2026-05-03 22:00 41.20561 -72.98370 4171 ft 131 kts 313°
2026-05-03 22:00 41.21206 -72.99245 4171 ft 131 kts 313°
2026-05-03 22:00 41.21848 -73.00111 4170 ft 131 kts 313°
2026-05-03 22:01 41.22491 -73.00971 4169 ft 132 kts 313°
2026-05-03 22:01 41.23148 -73.01852 4167 ft 132 kts 313°
2026-05-03 22:01 41.23793 -73.02718 4167 ft 132 kts 313°
2026-05-03 22:01 41.24436 -73.03583 4167 ft 132 kts 313°
2026-05-03 22:02 41.25088 -73.04456 4166 ft 132 kts 313°
2026-05-03 22:02 41.25738 -73.05327 4165 ft 132 kts 314°
2026-05-03 22:02 41.26377 -73.06185 4164 ft 132 kts 313°
2026-05-03 22:02 41.27031 -73.07065 4165 ft 132 kts 313°
2026-05-03 22:03 41.27665 -73.07925 4164 ft 131 kts 313°
2026-05-03 22:03 41.28315 -73.08798 4164 ft 131 kts 313°
2026-05-03 22:03 41.28964 -73.09666 4164 ft 131 kts 313°
2026-05-03 22:03 41.29608 -73.10527 4166 ft 131 kts 313°
2026-05-03 22:04 41.30256 -73.11390 4166 ft 131 kts 314°
2026-05-03 22:04 41.30897 -73.12247 4165 ft 131 kts 314°
2026-05-03 22:04 41.31546 -73.13116 4166 ft 132 kts 314°
2026-05-03 22:04 41.32194 -73.13984 4167 ft 132 kts 314°
2026-05-03 22:05 41.32837 -73.14849 4168 ft 132 kts 314°
2026-05-03 22:05 41.33482 -73.15720 4165 ft 132 kts 314°
2026-05-03 22:05 41.34133 -73.16601 4162 ft 132 kts 314°
2026-05-03 22:05 41.34775 -73.17476 4160 ft 132 kts 313°
2026-05-03 22:06 41.35418 -73.18352 4159 ft 132 kts 313°
2026-05-03 22:06 41.36067 -73.19233 4158 ft 132 kts 313°
2026-05-03 22:06 41.36715 -73.20109 4157 ft 132 kts 313°
2026-05-03 22:06 41.37358 -73.20972 4158 ft 132 kts 313°
2026-05-03 22:07 41.38010 -73.21844 4159 ft 132 kts 313°
2026-05-03 22:07 41.38659 -73.22706 4159 ft 132 kts 314°
2026-05-03 22:07 41.39312 -73.23574 4158 ft 132 kts 314°
2026-05-03 22:07 41.39965 -73.24439 4158 ft 132 kts 313°
2026-05-03 22:08 41.40608 -73.25295 4157 ft 132 kts 314°
2026-05-03 22:08 41.41260 -73.26166 4156 ft 132 kts 314°
2026-05-03 22:08 41.41912 -73.27041 4155 ft 131 kts 313°
2026-05-03 22:08 41.42551 -73.27898 4156 ft 131 kts 313°
2026-05-03 22:09 41.43165 -73.28816 4154 ft 131 kts 302°
2026-05-03 22:09 41.43575 -73.29909 4158 ft 131 kts 297°
2026-05-03 22:09 41.43954 -73.31004 4160 ft 131 kts 297°
2026-05-03 22:10 41.44705 -73.33244 4161 ft 132 kts 296°
2026-05-03 22:10 41.45077 -73.34369 4160 ft 132 kts 296°
2026-05-03 22:10 41.45447 -73.35493 4159 ft 132 kts 296°
2026-05-03 22:10 41.45817 -73.36619 4157 ft 132 kts 296°
2026-05-03 22:11 41.46185 -73.37741 4158 ft 132 kts 296°
2026-05-03 22:11 41.46552 -73.38856 4158 ft 132 kts 296°
2026-05-03 22:11 41.46919 -73.39978 4160 ft 132 kts 296°
2026-05-03 22:11 41.47286 -73.41096 4160 ft 132 kts 296°
2026-05-03 22:12 41.47652 -73.42213 4161 ft 132 kts 296°
2026-05-03 22:12 41.48020 -73.43338 4161 ft 132 kts 296°
2026-05-03 22:12 41.48390 -73.44468 4161 ft 132 kts 296°
2026-05-03 22:12 41.48757 -73.45590 4161 ft 132 kts 296°
2026-05-03 22:13 41.49123 -73.46708 4162 ft 132 kts 296°
2026-05-03 22:13 41.49491 -73.47833 4162 ft 132 kts 296°
2026-05-03 22:13 41.49735 -73.49011 4163 ft 135 kts 277°
2026-05-03 22:13 41.49672 -73.50273 4162 ft 137 kts 271°
2026-05-03 22:14 41.49571 -73.51540 4162 ft 137 kts 271°
2026-05-03 22:14 41.49468 -73.52795 4162 ft 137 kts 271°
2026-05-03 22:14 41.49363 -73.54071 4161 ft 137 kts 271°
2026-05-03 22:14 41.49260 -73.55339 4162 ft 138 kts 271°
2026-05-03 22:15 41.49155 -73.56625 4162 ft 138 kts 271°
2026-05-03 22:15 41.49051 -73.57892 4162 ft 138 kts 271°
2026-05-03 22:15 41.48950 -73.59178 4162 ft 138 kts 271°
2026-05-03 22:15 41.48850 -73.60462 3949 ft 151 kts 271°
2026-05-03 22:16 41.48755 -73.61979 3200 ft 172 kts 270°
2026-05-03 22:16 41.48937 -73.63545 2547 ft 172 kts 300°
2026-05-03 22:16 41.49485 -73.64771 2764 ft 146 kts 304°
2026-05-03 22:16 41.50058 -73.65891 2821 ft 142 kts 305°
2026-05-03 22:17 41.50600 -73.67017 2813 ft 143 kts 295°
2026-05-03 22:17 41.50938 -73.68269 2807 ft 143 kts 291°
2026-05-03 22:17 41.51247 -73.69527 2810 ft 143 kts 290°
2026-05-03 22:17 41.51553 -73.70791 2803 ft 143 kts 290°
2026-05-03 22:18 41.51857 -73.72049 2811 ft 143 kts 290°
2026-05-03 22:18 41.52159 -73.73309 2821 ft 143 kts 291°
2026-05-03 22:18 41.52463 -73.74575 2820 ft 143 kts 290°
2026-05-03 22:18 41.52773 -73.75848 2808 ft 143 kts 293°
2026-05-03 22:19 41.53350 -73.76902 2814 ft 143 kts 312°
2026-05-03 22:19 41.54061 -73.77852 2574 ft 145 kts 315°
2026-05-03 22:19 41.54803 -73.78791 2322 ft 147 kts 316°
2026-05-03 22:19 41.55554 -73.79723 2076 ft 148 kts 316°
2026-05-03 22:20 41.56302 -73.80642 1830 ft 148 kts 316°
2026-05-03 22:20 41.57071 -73.81583 1589 ft 148 kts 316°
2026-05-03 22:20 41.57806 -73.82481 1499 ft 134 kts 316°
2026-05-03 22:20 41.58464 -73.83282 1415 ft 123 kts 316°
2026-05-03 22:21 41.59131 -73.84013 1144 ft 123 kts 322°
2026-05-03 22:21 41.59754 -73.84692 939 ft 106 kts 317°
2026-05-03 22:21 41.60257 -73.85284 823 ft 87 kts 320°
2026-05-03 22:21 41.60713 -73.85799 749 ft 86 kts 316°
2026-05-03 22:22 41.61164 -73.86348 607 ft 89 kts 315°
2026-05-03 22:22 41.61637 -73.86901 427 ft 91 kts 319°
2026-05-03 22:22 41.62104 -73.87432 295 ft 84 kts 317°
2026-05-03 22:22 41.62521 -73.87930 161 ft 74 kts 319°
2026-05-03 22:23 41.62811 -73.88270 155 ft 37 kts 318°
2026-05-03 22:23 41.62902 -73.88430 154 ft 13 kts 235°
2026-05-03 22:23 41.62809 -73.88583 153 ft 25 kts 233°
2026-05-03 22:23 41.62750 -73.88703 151 ft 8 kts 285°
2026-05-03 22:24 41.62758 -73.88739 151 ft 0 kts 227°